Вернуться в каталог

STARLINK-35042

АктивенСвязьVLEO
NORAD 65481·PAYLOAD·🇺🇸 United States

Запущен Sep 3, 2025 с Cape Canaveral Space Force Station

Loading…

Ближайшие Пролёты (ближайшие 24 часа)

TLE

СвежийSource: CelesTrak SupGP

Эпоха: Sep 15, 2026, 02:21 UTC

1 65481C 25195Z   26258.09840278  .00006810  00000+0  20123-3 0  2580
2 65481  53.1573  94.8583 0001192  85.6917 246.1659 15.34383420    13

Отслеживайте STARLINK-35042 в реальном времени с AllMySat

Download on the App Store